Flag for Germany Weather past 2 weeks in Wiesbaden, Hesse, Germany

Now
40 °F

Overcast.


Feels Like: 32 °F
Forecast: 32 / 39 °F
Wind: 15 mph from South

Location: Wiesbaden Airport

Current Time: Jan 28, 2015 at 3:37:58 PM

Latest Report: Jan 28, 2015 at 2:58 PM


Visibility: N/A

Pressure: 29.79 "Hg

Humidity: 83%

Dew point: 35 °F

Location of WiesbadenLocation

Historic Weather in Wiesbaden — Graph

°F

Wiesbaden temperature yesterday

Maximum temperature yesterday: 39 °F (at 12:58 AM)
Minimum temperature yesterday: 36 °F (at 6:58 AM)
Average temperature yesterday: 38 °F

Past Weeks' High & Low Weather Summary

 TemperatureHumidityPressure
High55 °F (Jan 13, 2:58 PM)100% (Jan 16, 12:59 PM)30.46 "Hg (Jan 16, 12:59 PM)
Low27 °F (Jan 24, 1:58 AM)47% (Jan 13, 1:58 PM)29.63 "Hg (Jan 15, 8:01 PM)
Average36 °F89%30.03 "Hg
* Reported Jan 13 1:58 PM — Jan 28 1:58 PM, Wiesbaden, Weather by CustomWeather, © 2014

Note: Actual official high and low records may vary slightly from our data, if they occured in-between our weather recording intervals... More about our weather records

Advertising

Wiesbaden weather history for previous 24 hours

 ConditionsComfort  
Time TempWeatherWind HumidityBarometerVisibility
1:58 PM
Jan 28
40 °FMostly cloudy.18 mph86%29.85 "HgN/A
1:02 PM39 °FOvercast.16 mph87%29.88 "HgN/A
12:58 PM40 °FOvercast.16 mph86%29.90 "HgN/A
11:58 AM39 °FOvercast.13 mph88%29.96 "HgN/A
10:58 AM39 °FOvercast.7 mph87%30.01 "HgN/A
10:04 AM37 °FOvercast.10 mph93%30.01 "HgN/A
9:58 AM38 °FMostly cloudy.13 mph92%30.04 "HgN/A
8:58 AM37 °FOvercast.8 mph93%30.07 "HgN/A
7:58 AM36 °FOvercast.7 mph100%30.09 "HgN/A
6:58 AM36 °FMostly cloudy.3 mph93%30.11 "HgN/A
5:58 AM36 °FMostly cloudy.2 mph93%30.11 "HgN/A
4:58 AM35 °FMostly cloudy.5 mph97%30.14 "HgN/A
3:58 AM35 °FOvercast.2 mph99%30.16 "HgN/A
2:58 AM37 °FPassing clouds.2 mph93%30.17 "HgN/A
1:58 AM35 °FMostly cloudy.6 mph99%30.19 "HgN/A
12:58 AM36 °FMostly cloudy.8 mph96%30.21 "HgN/A
12:02 AM37 °FMostly cloudy.7 mph93%30.19 "HgN/A
11:58 PM
Jan 27
38 °FMostly cloudy.8 mph93%30.22 "HgN/A
11:04 PM37 °FMostly cloudy.9 mph93%30.19 "HgN/A
10:58 PM37 °FMostly cloudy.9 mph93%30.21 "HgN/A
10:00 PM37 °FMostly cloudy.14 mph93%30.19 "HgN/A
9:58 PM38 °FMostly cloudy.13 mph90%30.21 "HgN/A
8:58 PM39 °FOvercast.9 mph87%30.22 "HgN/A
7:58 PM38 °FOvercast.3 mph93%30.22 "HgN/A
6:58 PM37 °FLight rain. Mostly cloudy.6 mph93%30.22 "HgN/A
5:58 PM37 °FMostly cloudy.5 mph93%30.21 "HgN/A
4:58 PM37 °FOvercast.6 mph100%30.21 "HgN/A
3:58 PM38 °FLight rain. Cloudy.7 mph92%30.19 "HgN/A
Weather by CustomWeather, © 2014

See weather overviewHow to use our weather pages